Regional Weather Roundup
Issued by NWS

Home | Current Version | Previous Version | Graphics & Text | Print | Product List | Glossary On
Versions: 1 2 3 4 5 6 7 8 9 10 11 12 13 14 15 16 17 18 19 20 21 22 23 24 25 26 27 28 29 30 31 32 33 34 35 36 37 38 39 40 41 42 43 44 45 46 47 48 49 50
000
ASUS43 KDTX 230010
RWRMI
MICHIGAN HOURLY REGIONAL WEATHER ROUNDUP
NATIONAL WEATHER SERVICE DETROIT/PONTIAC MI
700 PM EST MON JAN 22 2018

NOTE: "FAIR" INDICATES FEW OR NO CLOUDS BELOW 12,000 FEET WITH NO
SIGNIFICANT WEATHER AND/OR OBSTRUCTION TO VISIBILITY.

MIZ047>049-052>055-059>063-066>070-074>076-081>083-230100-
SOUTHEAST LOWER MICHIGAN

CITY           SKY/WX    TMP DP  RH WIND       PRES   REMARKS
ADRIAN         CLOUDY    50  46  86 SW14      29.61S
6HR MIN TEMP:  49; 6HR MAX TEMP:  52; 6HR PCP:  0.06;

ALMA           MIX PCPN  37  37 100 CALM      29.56F VSB 1
6HR MIN TEMP:  35; 6HR MAX TEMP:  37;

ANN ARBOR      CLOUDY    50  48  93 S8        29.61S FOG
BAD AXE        CLOUDY    44  44 100 SE7       29.62F
6HR MIN TEMP:  36; 6HR MAX TEMP:  44;

CARO           CLOUDY    46  45  98 SE8       29.59F FOG
DETROIT CITY   CLOUDY    51  45  79 S10       29.63S
6HR MIN TEMP:  49; 6HR MAX TEMP:  53; 6HR PCP:  0.03;

DETROIT        CLOUDY    50  46  86 S12       29.62F
6HR MIN TEMP:  49; 6HR MAX TEMP:  55; 6HR PCP:  0.03;

FLINT          CLOUDY    48  47  96 S7        29.60S
6HR MIN TEMP:  47; 6HR MAX TEMP:  52; 6HR PCP: TRACE;

GROSSE ILE     CLOUDY    41  39  93 MISG      29.62F
6HR MIN TEMP:  38; 6HR MAX TEMP:  44; 6HR PCP:  0.02;

HILLSDALE      RAIN      48  46  93 S6        29.57F
HOWELL         CLOUDY    49  48  97 S7        29.59F FOG
6HR MIN TEMP:  49; 6HR MAX TEMP:  53;


CITY           SKY/WX    TMP DP  RH WIND       PRES   REMARKS
JACKSON        CLOUDY    49  48  97 S8        29.57F FOG
6HR MIN TEMP:  49; 6HR MAX TEMP:  52;

LAMBERTVILLE   CLOUDY    53  46  78 S7        29.62S
6HR MIN TEMP:  52; 6HR MAX TEMP:  57;

LANSING        CLOUDY    49  48  97 S9        29.57F FOG
6HR MIN TEMP:  41; 6HR MAX TEMP:  51; 6HR PCP:  0.01;

LAPEER         CLOUDY    45  44  99 SE3       29.61F FOG
6HR MIN TEMP:  45; 6HR MAX TEMP:  48; 6HR PCP:  0.01;

MONROE         CLOUDY    51  45  80 S9        29.61F
6HR MIN TEMP:  49; 6HR MAX TEMP:  56; 6HR PCP:  0.01;

MT. CLEMENS    CLOUDY    44  41  89 S13       29.65F
                                      6HR PCP:  0.07;

PONTIAC        DRIZZLE   48  47  96 SE8       29.60S FOG
6HR MIN TEMP:  47; 6HR MAX TEMP:  52; 6HR PCP:  0.07;

PORT HOPE        N/A     39  38  96 SE9       29.60F WCI  33
6HR MIN TEMP:  34; 6HR MAX TEMP:  39; 6HR PCP:  0.05;

PORT HURON     CLOUDY    48  45  87 S9        29.64S
TRI CITIES     CLOUDY    43  43 100 S9        29.57F FOG
6HR MIN TEMP:  35; 6HR MAX TEMP:  42; 6HR PCP:  0.10;

MIDLAND        CLOUDY    37  37 100 CALM      29.56F FOG
6HR MIN TEMP:  35; 6HR MAX TEMP:  38; 6HR PCP:  0.05;

TROY           CLOUDY    51  47  84 S13G18    29.63F
SAGINAW HB     CLOUDY    46  45  93 S9        29.58S
$$
MIZ043>046-050>051-056>058-064>065-071>073-077>080-230100-
SOUTHWEST LOWER MICHIGAN

CITY           SKY/WX    TMP DP  RH WIND       PRES   REMARKS
BATTLE CREEK   CLOUDY    50  48  93 S9        29.55F
6HR MIN TEMP:  50; 6HR MAX TEMP:  53; 6HR PCP:  0.02;

BENTON HARBOR  CLOUDY    51  47  86 S6        29.51R
6HR MIN TEMP:  50; 6HR MAX TEMP:  54; 6HR PCP:  0.03;

BIG RAPIDS     LGT SNOW  36  34  93 CALM      29.53F
6HR MIN TEMP:  35; 6HR MAX TEMP:  36; 6HR PCP:  0.02;

COLDWATER      CLOUDY    50  50 100 S6        29.56F
6HR MIN TEMP:  50; 6HR MAX TEMP:  53;

FREMONT        CLOUDY    40  38  95 E7        29.51F FOG     WCI  35
6HR MIN TEMP:  37; 6HR MAX TEMP:  40;

HOLLAND        FOG       46  45  96 S3        29.52S VSB 1/2
6HR MIN TEMP:  43; 6HR MAX TEMP:  50; 6HR PCP:  0.05;

GRAND RAPIDS   CLOUDY    47  46  97 S8        29.53F FOG
6HR MIN TEMP:  39; 6HR MAX TEMP:  47; 6HR PCP:  0.04;

IONIA          FOG       41  41 100 SE8       29.54F VSB 1/4
6HR MIN TEMP:  37; 6HR MAX TEMP:  41;

KALAMAZOO      CLOUDY    50  48  93 S7        29.55S
6HR MIN TEMP:  50; 6HR MAX TEMP:  54; 6HR PCP:  0.02;

LUDINGTON      CLOUDY    40  40 100 SE6       29.49F
6HR MIN TEMP:  37; 6HR MAX TEMP:  40; 6HR PCP:  0.17;

MARSHALL       CLOUDY    49  48  98 S5        29.55F
6HR MIN TEMP:  49; 6HR MAX TEMP:  52;

MOUNT PLEASANT CLOUDY    36  35  96 CALM      29.55F FOG
6HR MIN TEMP:  36; 6HR MAX TEMP:  37; 6HR PCP:  0.02;

MUSKEGON       FOG       45  43  93 SE8       29.51F VSB 1/4
6HR MIN TEMP:  41; 6HR MAX TEMP:  46; 6HR PCP:  0.10;

SOUTH HAVEN    CLOUDY    50  47  92 S3        29.52S
$$
MIZ016>042-230100-
NORTHERN LOWER MICHIGAN

CITY           SKY/WX    TMP DP  RH WIND       PRES   REMARKS
ALPENA         LGT RAIN  36  36 100 NE6       29.64F FOG     WCI  31
6HR MIN TEMP:  33; 6HR MAX TEMP:  36; 6HR PCP:  0.41;

BEAVER ISLAND  LGT SNOW  30  28  93 E20G25    29.64F WCI  18
6HR MIN TEMP:  28; 6HR MAX TEMP:  31;

BELLAIRE       FLURRIES  35  34  97 NE6       29.58F WCI  30
6HR MIN TEMP:  34; 6HR MAX TEMP:  35;

CADILLAC       CLOUDY    35  35  99 E6        29.53S WCI  30
CHARLEVOIX     LGT SNOW  33  33 100 E7        29.62F WCI  27
6HR MIN TEMP:  32; 6HR MAX TEMP:  33;

FRANKFORT      DRIZZLE   37  37 100 E5        29.52F WCI  34
GAYLORD        CLOUDY    32  32 100 NE10      29.59F WCI  24
6HR MIN TEMP:  31; 6HR MAX TEMP:  32; 6HR PCP:  0.26;

GRAYLING       CLOUDY    33  32  96 NE7       29.58F FOG     WCI  27
6HR MIN TEMP:  33; 6HR MAX TEMP:  33;

HARBOR SPRINGS MIX PCPN  30  30  98 NE12G18   29.63F WCI  21
HOUGHTON LAKE  CLOUDY    35  34  96 E8        29.56F FOG     WCI  29
6HR MIN TEMP:  34; 6HR MAX TEMP:  35; 6HR PCP:  0.12;

MANISTEE       LGT RAIN  37  37 100 E8        29.50F FOG     WCI  31
OSCODA         MIX PCPN  34  34  99 N3        29.59F VSB 1
6HR MIN TEMP:  34; 6HR MAX TEMP:  35; 6HR PCP:  0.14;

PELLSTON       FRZ RAIN  30  28  92 E15G23    29.67F WCI  19
6HR MIN TEMP:  29; 6HR MAX TEMP:  30; 6HR PCP:  0.24;

ROGERS CITY    LGT RAIN  32  31  96 E12G18    29.68F WCI  23
TRAVERSE CITY  DRIZZLE   36  35  96 NE6       29.55F FOG     WCI  31
6HR MIN TEMP:  36; 6HR MAX TEMP:  37; 6HR PCP:  0.17;

$$
MIZ007>008-015-230100-
EASTERN UPPER MICHIGAN

CITY           SKY/WX    TMP DP  RH WIND       PRES   REMARKS
KINROSS        LGT SNOW  24  22  91 NE14      29.72F FOG     WCI  12
6HR MIN TEMP:  24; 6HR MAX TEMP:  27;

MACKINAC ISLAN FLURRIES  29  28  99 E22G32    29.68F WCI  15
6HR MIN TEMP:  27; 6HR MAX TEMP:  29; 6HR PCP:  0.10;

NEWBERRY       LGT SNOW  24  24  97 NE14G21   29.70F WCI  12
6HR MIN TEMP:  24; 6HR MAX TEMP:  27;

S. S. MARIE    LGT SNOW  25  20  81 NE12G24   29.73F WCI  14
6HR MIN TEMP:  25; 6HR MAX TEMP:  30; 6HR PCP:  0.31;

MUNISING         N/A     28  28 100 NE18      29.71F WCI  15
6HR MIN TEMP:  28; 6HR MAX TEMP:  29; 6HR PCP:  0.19;

$$
MIZ004>006-011>014-085-230100-
CENTRAL UPPER MICHIGAN

CITY           SKY/WX    TMP DP  RH WIND       PRES   REMARKS
ESCANABA       LGT SNOW  29  27  92 N12G17    29.66S FOG     WCI  19
6HR MIN TEMP:  29; 6HR MAX TEMP:  31; 6HR PCP:  0.04;

MENOMINEE      LGT SNOW  28  28 100 N12G22    29.64R FOG     WCI  18
6HR MIN TEMP:  29; 6HR MAX TEMP:  31; 6HR PCP:  0.03;

SAWYER-GWINN   LGT SNOW  27  25  93 NE26      29.67F VSB 1   WCI  11
$$
MIZ001>003-009>011-084-230100-
WESTERN UPPER MICHIGAN

CITY           SKY/WX    TMP DP  RH WIND       PRES   REMARKS
IRON MOUNTAIN  SNOW      28  25  88 N7        29.68R VSB 1/2 WCI  21
6HR MIN TEMP:  28; 6HR MAX TEMP:  32; 6HR PCP:  0.04;

HOUGHTON       LGT SNOW  24  19  81 NE20G28   29.78F WCI  10
6HR MIN TEMP:  24; 6HR MAX TEMP:  26; 6HR PCP: TRACE;

COPPER HARBOR    N/A     25  22  88 E17G33    29.86F WCI  12
6HR MIN TEMP:  25; 6HR MAX TEMP:  27;

IRONWOOD       LGT SNOW  24  22  91 NE8G16    29.79R FOG     WCI  15
6HR MIN TEMP:  24; 6HR MAX TEMP:  27; 6HR PCP:  0.02;

$$

ABBREVIATIONS USED IN REMARKS
   TC - TEMPERATURE IN CELSIUS
  WCI - WIND CHILL INDEX
   HX - HEAT INDEX
  VSB - VISIBILITY




USA.gov is the U.S. government's official web portal to all federal, state and local government web resources and services.